"Pseudo-MPEC" for C5R6PU2

Created 2021 Jun 11 23:07:18 UT using Find_Orb

Click here for an explanation of pseudo-MPECs

 
 Astrometry: 
     C5R6PU2  C2021 06 11.28114916 00 53.72 -09 15 03.1    ~6B7q       VNEOCPG96
     C5R6PU2  C2021 06 11.28638116 00 55.70 -09 14 46.7    ~6B7q 19.53GVNEOCPG96
     C5R6PU2  C2021 06 11.29160616 00 57.70 -09 14 30.2    ~6B7q 19.71GVNEOCPG96
     C5R6PU2  C2021 06 11.29683116 00 59.71 -09 14 13.5    ~6B7q 19.48GVNEOCPG96
     C5R6PU2 mC2021 06 11.35059516 01 20.88 -09 11 17.5    ~6B97 19.19GVNEOCPI52
     C5R6PU2 mC2021 06 11.35102316 01 21.04 -09 11 16.0    ~6B97 19.37GVNEOCPI52
     C5R6PU2 mC2021 06 11.35144816 01 21.21 -09 11 14.5    ~6B97 19.34GVNEOCPI52
     C5R6PU2 mC2021 06 11.35187316 01 21.39 -09 11 13.2    ~6B97 19.59GVNEOCPI52
     C5R6PU2  C2021 06 11eb@ib!B;a*.9(QNPktw*%@Fo(.pR;\:56]6x_2mp!9xRg(x\uF\DF51
     C5R6PU2  C2021 06 11)E:[:PPOfg?dLQXL3f@-)IcTD/7hlAstrometry6]NP3X%EyL*vRF51
     C5R6PU2  C2021 06 11,0raPjH)-V(pGJc]-k3AImuHl9tv6']yD*%hRcu.kkV;Tm#E'DHtF51
     C5R6PU2  C2021 06 11sq@2EpLSLQ,+?8n:G9,WU:JX`+VbYOYS;%JQW@W/'cN?1C@KOQZCF51
     C5R6PU2 KC2021 06 11Vl)aFu+%NF^xdj0_G?fdG+PjLUs#i=Y5A7FvDBCaredacted;.-F474
     C5R6PU2 KC2021 06 110L2NM=$riYEGb7=!(=q$C!b9bJF.ZL@/y7gq'!=(#Y.oPdwn[kw#474
     C5R6PU2 KC2021 06 11-j?26MlbGU^w3?x*GU0JHtHpU$b-[Iw[h'(PN7lf4Z,f-B6=F_7H474
     C5R6PU2 KC2021 06 11UGLqTaA+;VsB8JJPp7Pw+I*'_HMD9vT`K:dFF%WsoCyn=Dn#Gy*-474
     C5R6PU2  C2021 06 11!1+:-_U0eINeo-BC/lf6k4-/YfZUpg0\MclickJifYSQ)'=Ri9uRN51
     C5R6PU2  C2021 06 11+bhwvP`/,'DaQ1q38u#%U00^l'6[A23LNV#$`hlE2-vwXd6SgobQN51
     C5R6PU2  C2021 06 11%C-7XN#lT+2cbP+TO=;%osi_0Tib3i_@ZHhere7d#v@i`(sk6HcQN51
     C5R6PU2 KC2021 06 11.91385416 06 44.91 -08 38 13.8    ~6BMb 19.4 GVNEOCPI93
     C5R6PU2 KC2021 06 11'2$qq*'%sC8=]YQ!'C?^?_M%AFKWHhbPf!Kp\PDB;c!l]5]u/v#4K83
     C5R6PU2 KC2021 06 11.91941416 06 47.91 -08 37 50.6    ~6BMb 19.0 GVNEOCPI93
     C5R6PU2 KC2021 06 11=#9N'60[1,Lm6JMYeforj42.K!E!0u$y8[8fatVexplanationqUK83
     C5R6PU2 KC2021 06 11.92537016 06 51.07 -08 37 27.6    ~6BMb 19.5 GVNEOCPI93
     C5R6PU2 hC2021 06 112(_PR/#eOnaV%bsw*Lj@d0'8gyny[d^1pH5\Q]689;Tov'GZS7rGL01
     C5R6PU2 KC2021 06 11(04[XhBNmN=OY?qmZc0a0k;!k3HMw7.V%KR+SE4pNmpm?=(y8`6)K83
     C5R6PU2 hC2021 06 11!7Oh:f+1vd\(I5N]_+/JJLRISj/CNe5W-OYs4jIxRGoZ_T\jc`njL01
     C5R6PU2 hC2021 06 118qC]Z@eEUBS^!rFPJ\rvW*R!H9o8+f5BFU-F1)yI+YB+cF1Ea;OlL01

Station data:
(474) Mount John Observatory, Lake Tekapo  (S43.987388 E170.464960)  New
   Zealand.  Observers A. C. Gilmore, P. M. Kilmartin. Measurer P. M.
   Kilmartin. 1.0-m f/7.7 reflector + CCD.
(F51) Pan-STARRS 1, Haleakala  (N20.707235 W156.255910)  US/Hawaii.
   Observers N. Primak, A. Schultz, S. Watters, J. Thiel, T. Goggia. Measurer
   PS1 Science Consortium. 1.8-m Ritchey-Chrétien + CCD.
(G96) Mt. Lemmon Survey  (N32.442754 W110.788720)  US/Arizona.  Observers T.
   A. Pruyne, B. M. Africano, E. J. Christensen, G. A. Farneth, D. C. Fuls,
   A. R. Gibbs, A. D. Grauer, H. Gröller, J. A. Johnson, R. A. Kowalski, S.
   M. Larson, G. J. Leonard, D. Rankin, R. L. Seaman, F. C. Shelly. 1.5-m
   reflector + 10K CCD.
(I52) Steward Observatory, Mt. Lemmon Station  (N32.442547 W110.788920)
   US/Arizona.  Observers T. A. Pruyne, B. M. Africano, E. J. Christensen, G.
   A. Farneth, D. C. Fuls, A. R. Gibbs, A. D. Grauer, H. Gröller, J. A.
   Johnson, R. A. Kowalski, S. M. Larson, G. J. Leonard, D. Rankin, R. L.
   Seaman, F. C. Shelly. 1.0-m reflector + CCD.
(I93) St Pardon de Conques  (N44.558710 W0.203000)  France.  Observer F.
   Losse. 0.40-m f/3.7 reflector + CCD.
(K83) Beppe Forti Astronomical Observatory, Montelupo  (N43.755333
   E11.043170)  Italy.
(L01) Višnjan Observatory, Tičan  (N45.290900 E13.749300)  Croatia.
   Observers K. Korlević, E. Pettarin. Measurer E. Pettarin. 1.0-m f/2.9
   reflector + CCD.
(N51) GROWTH India Telescope, IAO, Hanle  (N32.779244 E78.964610)  India.

Orbital elements:  C5R6PU2
   Perihelion 2021 Jul 16.314803 +/- 0.00589873 TT =  7:33:19 (JD 2459411.814803)
Epoch 2021 Jun 12.0 TT = JDT 2459377.5   Earth MOID: 0.0032   Ma: 0.0170
M 349.46143504 +/- 0.0313234        (J2000 ecliptic)          AutoNEOCP
n   0.30711424 +/- 0.000896622      Peri.  210.89934 +/- 0.0697148
a   2.17571867 +/- 0.00423456       Node    93.05415 +/- 0.0493998
e   0.5692938 +/- 0.000921048       Incl.    1.47220 +/- 0.0053860
P   3.21                   H 26.2   G  0.15   U  8.0  
q 0.93709546 +/- 0.00019305    Q 3.41434188 +/- 0.00867112
From 28 observations 2021 June 11 (15.7 hr); mean residual 0".34
Residuals in arcseconds: 
210611 G96  .24+  .25+    210611 F51  .08-  .12-    210611 K83  .14-  .49-    
210611 G96  .13+  .07+    210611 F51  .16-  .17-    210611 I93  .37+  .85+    
210611 G96  .24+  .06-    210611 474  .24-  .03-    210611 K83  .55-  .62-    
210611 G96  .39+  .06-    210611 474  .38-  .06-    210611 I93  .28+  .23-    
210611 I52  .08+  .15-    210611 474  .11-  .00     210611 L01  .21-  .03-    
210611 I52  .13-  .08-    210611 474  .29-  .05-    210611 K83  .38+  .38-    
210611 I52  .17-  .00     210611 N51  .34+  .77+    210611 L01  .52+  .67-    
210611 I52  .06-  .13-    210611 N51  .34+  .57+    210611 L01  .53-  .20-    
210611 F51  .03+  .11-    210611 N51  .02+  1.1+    
210611 F51  .06-  .10-    210611 I93  .34-  .04+    

Ephemerides (geocentric):
Date (UTC) HH   RA              Dec         delta   r     elong  mag " sig PA
---- -- -- --  -------------   -----------  ------ ------ -----  --- ---- ---
2021 06 11 23  16 07 09.587   -08 30 56.98  .02749 1.0409 157.1 19.6 .218  13
2021 06 12 00  16 07 36.315   -08 28 00.39  .02723 1.0406 157.2 19.6 .251  19
2021 06 12 01  16 08 03.553   -08 25 00.37  .02697 1.0404 157.2 19.6 .291  24
2021 06 12 02  16 08 31.316   -08 21 56.84  .02672 1.0402 157.2 19.5 .338  28
2021 06 12 03  16 08 59.618   -08 18 49.69  .02646 1.0399 157.2 19.5 .392  32
2021 06 12 04  16 09 28.475   -08 15 38.80  .02620 1.0397 157.2 19.5 .454  36
2021 06 12 05  16 09 57.903   -08 12 24.07  .02594 1.0395 157.2 19.5 .524  39
2021 06 12 06  16 10 27.917   -08 09 05.38  .02569 1.0393 157.3 19.4 .603  41
2021 06 12 07  16 10 58.537   -08 05 42.61  .02543 1.0390 157.3 19.4 .691  43
2021 06 12 08  16 11 29.778   -08 02 15.64  .02517 1.0388 157.3 19.4 .788  45
2021 06 12 09  16 12 01.660   -07 58 44.32  .02491 1.0386 157.3 19.4 .896  47
2021 06 12 10  16 12 34.202   -07 55 08.53  .02466 1.0383 157.3 19.4 1.01  49
2021 06 12 11  16 13 07.424   -07 51 28.12  .02440 1.0381 157.4 19.3 1.14  50
2021 06 12 12  16 13 41.347   -07 47 42.95  .02415 1.0379 157.4 19.3 1.28  51
2021 06 12 13  16 14 15.993   -07 43 52.85  .02389 1.0376 157.4 19.3 1.43  52
2021 06 12 14  16 14 51.383   -07 39 57.68  .02363 1.0374 157.4 19.3 1.60  53
2021 06 12 15  16 15 27.543   -07 35 57.26  .02338 1.0372 157.5 19.2 1.78  54
2021 06 12 16  16 16 04.495   -07 31 51.42  .02312 1.0370 157.5 19.2 1.97  55
2021 06 12 17  16 16 42.266   -07 27 39.97  .02287 1.0367 157.5 19.2 2.18  55
2021 06 12 18  16 17 20.882   -07 23 22.73  .02261 1.0365 157.5 19.2 2.40  56
2021 06 12 19  16 18 00.371   -07 18 59.50  .02236 1.0363 157.6 19.1 2.64  56
2021 06 12 20  16 18 40.762   -07 14 30.06  .02210 1.0360 157.6 19.1 2.90  57
2021 06 12 21  16 19 22.085   -07 09 54.22  .02185 1.0358 157.6 19.1 3.17  57
2021 06 12 22  16 20 04.371   -07 05 11.72  .02160 1.0356 157.7 19.1 3.47  58
2021 06 12 23  16 20 47.654   -07 00 22.35  .02134 1.0354 157.7 19.0 3.79  58
2021 06 13 00  16 21 31.968   -06 55 25.85  .02109 1.0351 157.7 19.0 4.13  59
2021 06 13 01  16 22 17.349   -06 50 21.97  .02084 1.0349 157.8 19.0 4.49  59
2021 06 13 02  16 23 03.834   -06 45 10.43  .02058 1.0347 157.8 18.9 4.88  59
2021 06 13 03  16 23 51.463   -06 39 50.95  .02033 1.0345 157.8 18.9 5.29  59
2021 06 13 04  16 24 40.277   -06 34 23.23  .02008 1.0342 157.8 18.9 5.73  60
2021 06 13 05  16 25 30.319   -06 28 46.96  .01983 1.0340 157.9 18.9 6.21  60
2021 06 13 06  16 26 21.634   -06 23 01.82  .01958 1.0338 157.9 18.8 6.71  60
2021 06 13 07  16 27 14.271   -06 17 07.45  .01932 1.0336 157.9 18.8 7.25  60
2021 06 13 08  16 28 08.277   -06 11 03.51  .01907 1.0333 158.0 18.8 7.82  61
2021 06 13 09  16 29 03.706   -06 04 49.62  .01882 1.0331 158.0 18.7 8.43  61
2021 06 13 10  16 30 00.612   -05 58 25.37  .01857 1.0329 158.0 18.7 9.08  61
2021 06 13 11  16 30 59.053   -05 51 50.36  .01832 1.0327 158.1 18.7 9.77  61
2021 06 13 12  16 31 59.089   -05 45 04.14  .01807 1.0324 158.1 18.6 10.5  61
2021 06 13 13  16 33 00.782   -05 38 06.26  .01782 1.0322 158.1 18.6 11.3  61
2021 06 13 14  16 34 04.201   -05 30 56.22  .01758 1.0320 158.1 18.6 12.1  62
2021 06 13 15  16 35 09.415   -05 23 33.53  .01733 1.0318 158.2 18.6 13.0  62
2021 06 13 16  16 36 16.498   -05 15 57.65  .01708 1.0315 158.2 18.5 14.0  62
2021 06 13 17  16 37 25.527   -05 08 08.01  .01683 1.0313 158.2 18.5 15.0  62
2021 06 13 18  16 38 36.585   -05 00 04.02  .01659 1.0311 158.2 18.5 16.1  62
2021 06 13 19  16 39 49.758   -04 51 45.04  .01634 1.0309 158.2 18.4 17.2  62
2021 06 13 20  16 41 05.137   -04 43 10.44  .01610 1.0306 158.3 18.4 18.5  62
2021 06 13 21  16 42 22.818   -04 34 19.50  .01585 1.0304 158.3 18.4 19.8  62
2021 06 13 22  16 43 42.903   -04 25 11.49  .01561 1.0302 158.3 18.3 21.2  62